{"data":{"norad_id":69137,"epoch":"2026-09-19T15:08:08.986848Z","epoch_age_seconds":98237,"freshness":"FRESH","line1":"1 69137U 26110P   26262.63065957  .00020766  00000+0  64350-3 0  9996","line2":"2 69137  97.2871  97.7144 0000719  35.8832 324.2459 15.33459783 20087","mean_motion":15.33459783,"eccentricity":7.19e-5,"inclination_deg":97.2871,"raan_deg":97.7144,"arg_perigee_deg":35.8832,"mean_anomaly_deg":324.2459,"bstar":0.0006435,"rev_number":2008,"period_min":93.905299373606,"perigee_km":465.00713358207,"apogee_km":465.99124846634,"semimajor_km":6843.6361910242,"source":"CELESTRAK","updated_at":"2026-09-20T09:00:44.086901Z"}}